AirNav   Air Wisconsin Up To $57,000 Bonus
 
 384 users online  

92VA New Quarter Farm Airport
Gloucester, Virginia, USA

GOING TO GLOUCESTER?


FAA INFORMATION EFFECTIVE 31 DECEMBER 2020

Location

FAA Identifier: 92VA
Lat/Long: 37-20-41.0000N 076-33-52.0000W
37-20.683333N 076-33.866667W
37.3447222,-76.5644444
(estimated)
Elevation: 38 ft. / 12 m (estimated)
Variation: 10W (1990)
From city: 5 miles SW of GLOUCESTER, VA
Time zone: UTC -5 (UTC -4 during Daylight Saving Time)
Zip code: 23061

Airport Operations

Airport use: Private use. Permission required prior to landing
Activation date: 09/1994
Control tower: no
ARTCC: WASHINGTON CENTER
FSS: LEESBURG FLIGHT SERVICE STATION
Attendance: UNATNDD
Wind indicator: yes
Segmented circle: no

Airport Communications

WX AWOS-3 at JGG (10 nm SW): 120.625 (757-220-8810)
WX ASOS at PHF (13 nm S): PHONE 757-874-3682
WX AWOS-3 at FYJ (14 nm NW): 132.825 (804-785-2307)
WX AWOS-3 at W75 (16 nm N): 118.45 (804-758-8592)

Nearby radio navigation aids

VOR radial/distance  VOR name  Freq  Var
HCMr139/9.4HARCUM VORTAC108.8007W
HPWr094/26.3HOPEWELL VORTAC112.0006W
CCVr280/27.0CAPE CHARLES VORTAC112.2010W
ORFr334/32.3NORFOLK VORTAC116.9007W
RICr114/37.2RICHMOND VORTAC114.1009W

 
NDB name  Hdg/Dist  Freq  Var  ID
WAKEFIELD055/30.127411WAKQ .- -.- --.-

Airport Services

Runway Information

Runway 15/33

Dimensions: 3100 x 65 ft. / 945 x 20 m
Surface: turf, in good condition
RUNWAY 15  RUNWAY 33
Traffic pattern: leftright
Obstructions: 80 ft. trees, 100 ft. from runwaynone

Airport Ownership and Management from official FAA records

Ownership: Privately-owned
Owner: RICHARD H LEIGH
4714 NEW QUARTER FARM LN
GLOUCESTER, VA 23061
Phone 804-693-4520
Manager: RICHARD H LEIGH
4714 NEW QUARTER FARM LN
GLOUCESTER, VA 23061
Phone 804-693-4520

Airport Operational Statistics

Aircraft based on the field: 6
Single engine airplanes: 2
Ultralights: 4
    

Additional Remarks

FOR CD CTC NORFOLK APCH AT 757-464-0757.

Instrument Procedures

There are no published instrument procedures at 92VA.

Some nearby airports with instrument procedures:

W94 - Camp Peary Landing Strip Airport (4 nm SW)
KJGG - Williamsburg-Jamestown Airport (10 nm SW)
KFAF - Felker Army Airfield (13 nm S)
KPHF - Newport News/Williamsburg International Airport (13 nm S)
KFYJ - Middle Peninsula Regional Airport (14 nm NW)
W75 - Hummel Field Airport (16 nm N)
KLFI - Langley Air Force Base (18 nm SE)
 
Loc | Ops | Rwys | IFR | FBO | Links
Com | Nav | Svcs | Stats | Notes
Area around 92VA (New Quarter Farm Airport)
 
Road maps at: MapQuest Bing Google
 
Aerial photo
No photo
 
Sectional chart

 
Airport distance calculator
Flying to New Quarter Farm Airport? Find the distance to fly.

From to 92VA

Sunrise and sunset
Times for 25-Jan-2021
 Local
(UTC-5)
 Zulu
(UTC)
Morning civil twilight06:4811:48
Sunrise07:1612:16
Sunset17:2222:22
Evening civil twilight17:5022:50

Current date and time
Zulu (UTC)  25-Jan-2021 07:35:05
Local (UTC-5)  25-Jan-2021 02:35:05
 
METAR
KJGG 
10nm SW 
250715Z AUTO 00000KT 10SM OVC050 03/M01 A3015 RMK AO1
KPHF 
13nm S 
250654Z AUTO 00000KT 10SM OVC050 01/M01 A3015 RMK AO2 SLP208 T00111011
KFAF 
14nm S 
250656Z AUTO 12004KT 10SM OVC050 02/M01 A3012 RMK AO2 SLP203 T00191014 $
KFYJ 
14nm NW 
250715Z AUTO 10003KT 10SM SCT060 SCT075 BKN095 01/M01 A3014 RMK AO1 T00101009
KW75 
16nm N 
250715Z AUTO 00000KT 10SM OVC041 01/M01 A3015 RMK AO1 T00101011
KLFI 
19nm SE 
250656Z AUTO 13003KT 10SM OVC049 02/02 A3014 RMK AO2 SLP213 T00200016 $
TAF
KPHF 
13nm S 
250526Z 2506/2606 14005KT P6SM OVC060 FM251200 20004KT P6SM OVC050 FM251700 09005KT 6SM -RA OVC050 FM252000 10005KT 4SM RA BR OVC025 FM252200 09005KT 3SM RA BR OVC015 FM260000 07006KT 3SM RA BR OVC006
NOTAMs
Click for the latest NOTAMs
NOTAMs are issued by the DoD/FAA and will open in a separate window not controlled by AirNav.

 

 
 

Would you like to see your business listed on this page?

 If your business provides an interesting product or service to pilots, flight crews, aircraft, or users of the New Quarter Farm Airport, you should consider listing it here.  To start the listing process, click on the button below
 
Add a business
 

Other Pages about New Quarter Farm Airport

Update a link
 
Copyright © AirNav, LLC. All rights reserved. Privacy Policy  Contact